TimeEST,TemperatureF,Dew PointF,Humidity,Sea Level PressureIn,VisibilityMPH,Wind Direction,Wind SpeedMPH,Gust SpeedMPH,PrecipitationIn,Events,Conditions,WindDirDegrees,DateUTC
12:53 AM,28.0,19.9,72,30.16,10.0,North,13.8,-,N/A,,Overcast,360,2013-02-22 05:53:00
1:53 AM,26.1,19.0,75,30.18,10.0,North,12.7,-,N/A,,Mostly Cloudy,360,2013-02-22 06:53:00
2:53 AM,25.0,17.1,72,30.21,10.0,North,13.8,-,N/A,,Clear,360,2013-02-22 07:53:00
3:53 AM,24.1,17.1,75,30.24,10.0,North,11.5,-,N/A,,Clear,360,2013-02-22 08:53:00
4:53 AM,21.0,15.1,78,30.27,10.0,NNE,10.4,-,N/A,,Clear,20,2013-02-22 09:53:00
5:53 AM,19.0,14.0,81,30.29,10.0,NNE,8.1,-,N/A,,Clear,20,2013-02-22 10:53:00
6:53 AM,18.0,12.9,81,30.30,10.0,North,6.9,-,N/A,,Clear,10,2013-02-22 11:53:00
7:53 AM,21.0,14.0,74,30.33,10.0,North,10.4,-,N/A,,Clear,360,2013-02-22 12:53:00
8:53 AM,25.0,15.1,66,30.35,10.0,North,9.2,-,N/A,,Clear,10,2013-02-22 13:53:00
9:53 AM,26.1,15.1,63,30.37,10.0,North,13.8,-,N/A,,Scattered Clouds,360,2013-02-22 14:53:00
10:08 AM,26.6,15.8,64,30.35,10.0,NNE,15.0,-,N/A,,Mostly Cloudy,20,2013-02-22 15:08:00
10:53 AM,27.0,16.0,63,30.38,10.0,North,11.5,19.6,N/A,,Overcast,350,2013-02-22 15:53:00
11:53 AM,28.0,16.0,61,30.37,10.0,NNW,11.5,-,N/A,,Overcast,330,2013-02-22 16:53:00
12:53 PM,28.9,17.1,61,30.35,10.0,NNW,8.1,-,N/A,,Overcast,340,2013-02-22 17:53:00
1:53 PM,28.9,17.1,61,30.34,10.0,NNW,10.4,-,N/A,,Mostly Cloudy,340,2013-02-22 18:53:00
2:41 PM,30.2,17.6,60,30.31,10.0,NNW,9.2,-,N/A,,Scattered Clouds,340,2013-02-22 19:41:00
2:53 PM,28.9,17.1,61,30.34,10.0,North,13.8,-,N/A,,Partly Cloudy,10,2013-02-22 19:53:00
3:53 PM,30.0,17.1,59,30.33,10.0,North,8.1,-,N/A,,Clear,350,2013-02-22 20:53:00
4:53 PM,28.9,17.1,61,30.35,10.0,Calm,Calm,-,N/A,,Clear,0,2013-02-22 21:53:00
5:53 PM,23.0,16.0,74,30.35,10.0,Calm,Calm,-,N/A,,Clear,0,2013-02-22 22:53:00
6:53 PM,18.0,12.9,81,30.34,10.0,Calm,Calm,-,N/A,,Clear,0,2013-02-22 23:53:00
7:53 PM,15.1,10.9,84,30.35,10.0,Calm,Calm,-,N/A,,Clear,0,2013-02-23 00:53:00
8:53 PM,12.0,8.1,84,30.35,10.0,Calm,Calm,-,N/A,,Clear,0,2013-02-23 01:53:00
9:53 PM,10.0,6.1,84,30.36,10.0,Calm,Calm,-,N/A,,Clear,0,2013-02-23 02:53:00
10:53 PM,9.0,5.0,84,30.35,10.0,Calm,Calm,-,N/A,,Clear,0,2013-02-23 03:53:00
11:53 PM,14.0,10.0,84,30.37,10.0,South,3.5,-,N/A,,Clear,180,2013-02-23 04:53:00